Tracking 31027 objects as of 19-Jul-2025
HD Live streaming from Space Station
objects crossing your sky now

COSMOS 1158

Track COSMOS 1158 now!
10-day predictions
COSMOS 1158 is classified as:


NORAD ID: 11693
Int'l Code: 1980-012C
Perigee: 1,439.8 km
Apogee: 1,483.7 km
Inclination: 74.0 °
Period: 115.0 minutes
Semi major axis: 7832 km
RCS: 0.707 m2 (medium)
Launch date: February 11, 1980
Source: Commonwealth of Independent States (former USSR) (CIS)
Launch site: PLESETSK MISSILE AND SPACE COMPLEX (PKMTR)
Your satellite tracking list
STARLINK-31611
Track 1 satellite(s)




NASA's NSSDC Master Catalog

Two Line Element Set (TLE):
1 11693U 80012C   25199.54679387 -.00000022  00000-0 -36419-4 0  9999
2 11693  74.0226 308.5126 0028033 292.5100  78.6244 12.52373555 76959
Source of the keplerian elements: AFSPC